TimeMST,TemperatureF,Dew PointF,Humidity,Sea Level PressureIn,VisibilityMPH,Wind Direction,Wind SpeedMPH,Gust SpeedMPH,PrecipitationIn,Events,Conditions,WindDirDegrees,DateUTC
12:53 AM,30.9,28.0,89,29.81,10.0,NE,10.4,-,N/A,,Overcast,40,2012-11-09 07:53:00
1:53 AM,32.0,27.0,82,29.81,10.0,NNE,9.2,-,N/A,,Overcast,20,2012-11-09 08:53:00
2:53 AM,30.9,28.0,89,29.79,7.0,NE,10.4,-,0.00,Fog,Overcast,40,2012-11-09 09:53:00
3:32 AM,30.2,28.4,93,29.71,3.0,NNE,8.1,-,0.00,,Light Freezing Drizzle,30,2012-11-09 10:32:00
3:53 AM,30.0,28.9,96,29.79,4.0,NNE,6.9,-,0.00,,Light Freezing Drizzle,20,2012-11-09 10:53:00
4:25 AM,30.2,28.4,93,29.70,2.5,NNE,6.9,-,0.00,,Light Freezing Drizzle,20,2012-11-09 11:25:00
4:37 AM,30.2,28.4,93,29.69,1.0,NNE,6.9,-,0.00,,Light Freezing Drizzle,30,2012-11-09 11:37:00
4:39 AM,30.2,28.4,93,29.69,0.8,NE,8.1,-,0.00,,Light Freezing Drizzle,40,2012-11-09 11:39:00
4:53 AM,30.0,28.9,96,29.76,0.8,NNE,9.2,-,0.00,,Light Freezing Drizzle,30,2012-11-09 11:53:00
5:53 AM,30.0,28.9,96,29.75,0.5,NNE,5.8,-,0.00,Fog,Light Freezing Drizzle,30,2012-11-09 12:53:00
6:01 AM,30.2,30.2,100,29.68,0.5,NE,5.8,-,0.00,,Light Freezing Drizzle,40,2012-11-09 13:01:00
6:05 AM,30.2,28.4,93,29.67,0.5,NNE,6.9,-,0.00,,Light Freezing Drizzle,20,2012-11-09 13:05:00
6:53 AM,30.0,30.0,100,29.76,1.0,North,4.6,-,0.00,,Light Freezing Drizzle,350,2012-11-09 13:53:00
7:53 AM,30.9,30.0,96,29.79,1.0,NNW,4.6,-,0.00,,Light Freezing Drizzle,340,2012-11-09 14:53:00
8:47 AM,30.2,30.2,100,29.71,1.0,North,5.8,-,0.00,Snow,Light Snow,360,2012-11-09 15:47:00
8:53 AM,30.9,30.0,96,29.78,1.0,North,6.9,-,0.00,Snow,Light Snow,10,2012-11-09 15:53:00
9:38 AM,30.2,30.2,100,29.70,3.0,North,6.9,-,0.00,Snow,Light Snow,350,2012-11-09 16:38:00
9:45 AM,32.0,30.2,93,29.71,3.0,NNE,4.6,-,0.00,Snow,Light Snow,20,2012-11-09 16:45:00
9:53 AM,32.0,30.0,92,29.79,4.0,North,4.6,-,0.00,Snow,Light Snow,10,2012-11-09 16:53:00
10:02 AM,32.0,30.2,93,29.72,8.0,North,4.6,-,0.00,,Overcast,350,2012-11-09 17:02:00
10:53 AM,33.1,30.0,89,29.78,10.0,North,8.1,-,0.00,,Overcast,350,2012-11-09 17:53:00
11:53 AM,33.1,30.0,89,29.78,10.0,NNW,12.7,-,0.00,Snow,Light Snow,330,2012-11-09 18:53:00
12:53 PM,34.0,28.9,82,29.77,10.0,North,8.1,-,0.00,Snow,Light Snow,350,2012-11-09 19:53:00
1:53 PM,33.1,28.9,85,29.78,10.0,North,8.1,-,0.00,,Overcast,350,2012-11-09 20:53:00
2:53 PM,33.1,28.0,82,29.78,6.0,North,13.8,-,0.00,Snow,Light Snow,360,2012-11-09 21:53:00
3:26 PM,32.0,28.4,87,29.71,2.0,North,13.8,-,0.00,Snow,Light Snow,360,2012-11-09 22:26:00
3:33 PM,30.2,28.4,93,29.71,1.2,North,16.1,-,0.00,Snow,Light Snow,350,2012-11-09 22:33:00
3:42 PM,30.2,28.4,93,29.71,1.2,North,13.8,-,0.00,Snow,Light Snow,360,2012-11-09 22:42:00
3:53 PM,30.0,28.0,92,29.81,1.5,North,15.0,-,0.01,Snow,Light Snow,350,2012-11-09 22:53:00
4:05 PM,30.2,28.4,93,29.71,5.0,North,13.8,-,0.00,Snow,Light Snow,350,2012-11-09 23:05:00
4:14 PM,30.2,26.6,86,29.71,2.5,North,16.1,-,0.00,Snow,Light Snow,360,2012-11-09 23:14:00
4:35 PM,30.2,26.6,86,29.74,4.0,North,15.0,-,0.00,Snow,Light Snow,360,2012-11-09 23:35:00
4:40 PM,30.2,26.6,86,29.73,5.0,North,15.0,-,0.00,Snow,Light Snow,10,2012-11-09 23:40:00
4:53 PM,28.9,26.1,89,29.82,5.0,North,15.0,-,0.00,Snow,Light Snow,360,2012-11-09 23:53:00
5:15 PM,28.4,26.6,93,29.75,2.5,North,12.7,-,0.00,Snow,Light Snow,360,2012-11-10 00:15:00
5:26 PM,28.4,24.8,86,29.75,5.0,North,18.4,24.2,0.00,Snow,Light Snow,360,2012-11-10 00:26:00
5:50 PM,26.6,23.0,86,29.75,9.0,North,15.0,26.5,0.00,,Overcast,10,2012-11-10 00:50:00
5:53 PM,27.0,23.0,85,29.85,9.0,North,18.4,26.5,0.00,,Overcast,10,2012-11-10 00:53:00
6:53 PM,26.1,21.9,84,29.86,9.0,North,17.3,25.3,0.00,Snow,Light Snow,10,2012-11-10 01:53:00
7:53 PM,24.1,19.9,84,29.87,5.0,NNE,20.7,26.5,0.00,Snow,Light Snow,20,2012-11-10 02:53:00
8:39 PM,23.0,19.4,86,29.76,2.0,NNE,13.8,-,0.00,Snow,Light Snow,20,2012-11-10 03:39:00
8:46 PM,23.0,19.4,86,29.78,1.2,NNE,13.8,21.9,0.00,Snow,Light Snow,20,2012-11-10 03:46:00
8:53 PM,23.0,19.9,88,29.87,1.2,NNE,17.3,24.2,0.01,Snow,Light Snow,30,2012-11-10 03:53:00
9:06 PM,23.0,19.4,86,29.79,2.0,NNE,11.5,21.9,0.00,Snow,Light Snow,20,2012-11-10 04:06:00
9:20 PM,23.0,19.4,86,29.79,4.0,NNE,13.8,-,0.00,Snow,Light Snow,20,2012-11-10 04:20:00
9:39 PM,23.0,19.4,86,29.79,2.5,NNE,13.8,-,N/A,Snow,Light Snow,20,2012-11-10 04:39:00
9:53 PM,21.9,19.0,89,29.89,2.0,NNE,12.7,-,0.01,Snow,Light Snow,20,2012-11-10 04:53:00
10:31 PM,21.2,17.6,86,29.79,3.0,NNE,10.4,19.6,0.00,Snow,Light Snow,20,2012-11-10 05:31:00
10:53 PM,21.0,18.0,88,29.90,5.0,North,11.5,-,0.00,Snow,Light Snow,10,2012-11-10 05:53:00
11:53 PM,21.0,18.0,88,29.90,3.0,North,10.4,-,0.01,Snow,Light Snow,10,2012-11-10 06:53:00